{"data":{"norad_id":57081,"intl_designator":"2023-088AK","name":"STARLINK-6184","alt_names":[],"object_type":"PAYLOAD","status":"ACTIVE","operator":null,"country":"US","launch_date":"2023-06-22","launch_site_code":"AFWTR","launch_vehicle":null,"mission":null,"orbit_class":"UNKNOWN","rcs_meters":null,"size_class":null,"mass_kg":null,"dimensions":null,"purposes":["comms"],"wikipedia_slug":null,"has_3d_model":false,"image_url":null,"decayed_at":null,"tle_current":{"epoch":"2026-05-24T22:34:39.307008Z","epoch_age_seconds":80997,"freshness":"FRESH","line1":"1 57081U 23088AK  26144.94073272  .00000172  00000+0  15787-4 0  9994","line2":"2 57081  43.0051  25.3534 0001354 265.5542  94.5156 15.27576426162161","mean_motion":15.27576426,"eccentricity":0.0001354,"inclination_deg":43.0051,"raan_deg":25.3534,"arg_perigee_deg":265.5542,"mean_anomaly_deg":94.5156,"bstar":1.5787e-5,"rev_number":16216,"period_min":94.266969265209,"perigee_km":482.13079185582,"apogee_km":483.9888039487,"semimajor_km":6861.1967979023,"source":"CELESTRAK","updated_at":"2026-05-25T13:38:18.215596Z"}}}